Location: Stanford
(52.2833°N, 2.4333°W)
Time: 01:26:40
(UTC+00:00)

CZ-4 R/B - Pass Details

Date: 22 January 2021
Orbit: 530 x 599 km, 97.7° (Epoch: 28 February)

Event Time Altitude Azimuth Distance (km) Brightness Sun altitude
Rises 17:53:13 0° 143° (SE) 2,789 4.7 -11.1°
Reaches altitude 10° 17:55:28 10° 135° (SE) 1,883 3.8 -11.5°
Maximum altitude 17:59:15 38° 68° (ENE) 882 1.8 -12.0°
Drops below altitude 10° 18:02:58 10° 360° (N) 1,858 3.9 -12.6°
Sets 18:05:11 0° 352° (N) 2,747 4.8 -12.9°
